GLO5214 SBKG-SBFN

Flight info

Callsign GLO5214
Flight time 0h 54m
Altitude 31000
Route DALVI DCT EDVEG DCT UBRUT DCT NISBU
Aircraft B738/M-SDE2E3FGHIRWXY/LB1

Departure

Time 2026-04-21 21:08
Airport Presidente João Suassuna Airport (SBKG)

Arrival

Time 2026-04-21 22:03
Airport Fernando de Noronha Airport (SBFN)
Time Latitude Longitude Altitude Speed Heading
2026-04-21 20:54 -7.26932 -35.89416 1645 ft 0 kts 35°
2026-04-21 21:01 -7.26933 -35.89417 1645 ft 0 kts 35°
2026-04-21 21:01 -7.26945 -35.89426 1648 ft 2 kts 44°
2026-04-21 21:01 -7.26955 -35.89439 1644 ft 2 kts 80°
2026-04-21 21:01 -7.26951 -35.89455 1647 ft 2 kts 123°
2026-04-21 21:02 -7.26948 -35.89460 1646 ft 0 kts 126°
2026-04-21 21:04 -7.26949 -35.89459 1640 ft 1 kts 125°
2026-04-21 21:04 -7.26971 -35.89444 1647 ft 6 kts 175°
2026-04-21 21:04 -7.27010 -35.89461 1649 ft 6 kts 211°
2026-04-21 21:04 -7.27024 -35.89500 1642 ft 6 kts 281°
2026-04-21 21:05 -7.26999 -35.89550 1644 ft 10 kts 303°
2026-04-21 21:05 -7.26943 -35.89630 1648 ft 17 kts 305°
2026-04-21 21:05 -7.26870 -35.89733 1641 ft 18 kts 305°
2026-04-21 21:05 -7.26800 -35.89834 1645 ft 17 kts 305°
2026-04-21 21:06 -7.26732 -35.89931 1643 ft 17 kts 305°
2026-04-21 21:06 -7.26666 -35.90024 1649 ft 16 kts 303°
2026-04-21 21:06 -7.26618 -35.90102 1646 ft 9 kts 294°
2026-04-21 21:06 -7.26605 -35.90161 1649 ft 8 kts 285°
2026-04-21 21:07 -7.26567 -35.90163 1642 ft 3 kts 79°
2026-04-21 21:07 -7.26576 -35.90149 1643 ft 0 kts 126°
2026-04-21 21:07 -7.26587 -35.90134 1643 ft 22 kts 126°
2026-04-21 21:08 -7.26855 -35.89751 1641 ft 109 kts 125°
2026-04-21 21:08 -7.27440 -35.88935 1787 ft 167 kts 123°
2026-04-21 21:08 -7.28113 -35.87957 2664 ft 175 kts 124°
2026-04-21 21:08 -7.28700 -35.86938 3812 ft 172 kts 108°
2026-04-21 21:09 -7.28585 -35.85649 4227 ft 208 kts 65°
2026-04-21 21:09 -7.27753 -35.84352 4446 ft 232 kts 58°
2026-04-21 21:09 -7.26808 -35.82955 4796 ft 248 kts 58°
2026-04-21 21:09 -7.25846 -35.81507 5295 ft 255 kts 59°
2026-04-21 21:10 -7.24853 -35.79975 5685 ft 271 kts 59°
2026-04-21 21:10 -7.23812 -35.78339 6254 ft 281 kts 59°
2026-04-21 21:10 -7.22763 -35.76671 7092 ft 283 kts 59°
2026-04-21 21:10 -7.21713 -35.74989 7921 ft 285 kts 60°
2026-04-21 21:11 -7.20656 -35.73290 8715 ft 289 kts 60°
2026-04-21 21:11 -7.19588 -35.71558 9529 ft 292 kts 62°
2026-04-21 21:11 -7.18799 -35.69676 10277 ft 295 kts 74°
2026-04-21 21:11 -7.18187 -35.67625 10540 ft 318 kts 75°
2026-04-21 21:12 -7.17564 -35.65404 10734 ft 340 kts 76°
2026-04-21 21:12 -7.16912 -35.63074 11205 ft 350 kts 76°
2026-04-21 21:12 -7.16241 -35.60711 11913 ft 351 kts 75°
2026-04-21 21:12 -7.15558 -35.58341 12617 ft 354 kts 75°
2026-04-21 21:13 -7.14862 -35.55947 13271 ft 357 kts 75°
2026-04-21 21:13 -7.14155 -35.53535 13910 ft 360 kts 75°
2026-04-21 21:13 -7.13440 -35.51105 14470 ft 364 kts 74°
2026-04-21 21:13 -7.12719 -35.48655 15027 ft 367 kts 74°
2026-04-21 21:14 -7.11987 -35.46175 15577 ft 371 kts 74°
2026-04-21 21:14 -7.11250 -35.43679 16154 ft 374 kts 74°
2026-04-21 21:14 -7.10515 -35.41192 16702 ft 377 kts 74°
2026-04-21 21:14 -7.09765 -35.38655 17242 ft 380 kts 74°
2026-04-21 21:15 -7.09005 -35.36086 17777 ft 384 kts 74°
2026-04-21 21:15 -7.08240 -35.33500 18293 ft 387 kts 74°
2026-04-21 21:15 -7.07469 -35.30894 18737 ft 390 kts 74°
2026-04-21 21:15 -7.06694 -35.28274 19191 ft 393 kts 74°
2026-04-21 21:16 -7.05911 -35.25631 19649 ft 395 kts 73°
2026-04-21 21:16 -7.05122 -35.22966 20093 ft 398 kts 73°
2026-04-21 21:16 -7.04329 -35.20288 20504 ft 401 kts 73°
2026-04-21 21:16 -7.03530 -35.17589 20944 ft 404 kts 73°
2026-04-21 21:17 -7.02724 -35.14869 21348 ft 407 kts 73°
2026-04-21 21:17 -7.01908 -35.12119 21726 ft 411 kts 73°
2026-04-21 21:17 -7.01087 -35.09350 22120 ft 414 kts 73°
2026-04-21 21:17 -7.00260 -35.06560 22491 ft 417 kts 73°
2026-04-21 21:18 -6.99428 -35.03753 22871 ft 420 kts 73°
2026-04-21 21:18 -6.98590 -35.00926 23237 ft 423 kts 73°
2026-04-21 21:18 -6.97745 -34.98073 23574 ft 426 kts 73°
2026-04-21 21:18 -6.96894 -34.95208 23879 ft 429 kts 73°
2026-04-21 21:19 -6.96025 -34.92331 24197 ft 430 kts 70°
2026-04-21 21:19 -6.94810 -34.89580 24508 ft 431 kts 60°
2026-04-21 21:19 -6.93204 -34.87078 24801 ft 432 kts 52°
2026-04-21 21:19 -6.91199 -34.84818 25114 ft 432 kts 45°
2026-04-21 21:20 -6.89073 -34.82665 25417 ft 434 kts 44°
2026-04-21 21:20 -6.86919 -34.80524 25703 ft 436 kts 44°
2026-04-21 21:20 -6.84758 -34.78380 26009 ft 437 kts 44°
2026-04-21 21:20 -6.82595 -34.76223 26290 ft 439 kts 44°
2026-04-21 21:21 -6.80431 -34.74051 26582 ft 440 kts 44°
2026-04-21 21:21 -6.78263 -34.71863 26854 ft 442 kts 44°
2026-04-21 21:21 -6.76095 -34.69667 27166 ft 442 kts 44°
2026-04-21 21:21 -6.73927 -34.67469 27526 ft 442 kts 44°
2026-04-21 21:22 -6.71768 -34.65279 27880 ft 441 kts 44°
2026-04-21 21:22 -6.69611 -34.63092 28271 ft 440 kts 44°
2026-04-21 21:22 -6.67462 -34.60912 28652 ft 439 kts 44°
2026-04-21 21:22 -6.65314 -34.58733 29032 ft 438 kts 44°
2026-04-21 21:23 -6.63894 -34.57291 29269 ft 438 kts 44°
2026-04-21 21:23 -6.61750 -34.55114 29637 ft 437 kts 44°
2026-04-21 21:23 -6.59608 -34.52940 30014 ft 437 kts 44°
2026-04-21 21:23 -6.57473 -34.50773 30340 ft 436 kts 44°
2026-04-21 21:24 -6.55339 -34.48608 30690 ft 434 kts 44°
2026-04-21 21:24 -6.53214 -34.46453 30931 ft 432 kts 44°
2026-04-21 21:24 -6.49004 -34.42187 30940 ft 433 kts 44°
2026-04-21 21:25 -6.44747 -34.37874 30952 ft 435 kts 44°
2026-04-21 21:25 -6.40477 -34.33548 30944 ft 437 kts 44°
2026-04-21 21:26 -6.36181 -34.29197 30943 ft 438 kts 44°
2026-04-21 21:26 -6.31880 -34.24842 30939 ft 437 kts 44°
2026-04-21 21:27 -6.27617 -34.20525 30929 ft 431 kts 44°
2026-04-21 21:27 -6.23399 -34.16258 30944 ft 430 kts 44°
2026-04-21 21:28 -6.19174 -34.11983 30941 ft 431 kts 44°
2026-04-21 21:29 -6.12854 -34.05591 30941 ft 431 kts 44°
2026-04-21 21:29 -6.08619 -34.01308 30940 ft 432 kts 44°
2026-04-21 21:30 -6.04378 -33.97021 30941 ft 432 kts 44°
2026-04-21 21:30 -6.00164 -33.92762 30940 ft 432 kts 44°
2026-04-21 21:31 -5.95920 -33.88473 30939 ft 433 kts 44°
2026-04-21 21:31 -5.91672 -33.84181 30940 ft 433 kts 44°
2026-04-21 21:32 -5.87425 -33.79893 30939 ft 433 kts 44°
2026-04-21 21:32 -5.83201 -33.75627 30942 ft 433 kts 44°
2026-04-21 21:33 -5.78954 -33.71340 30937 ft 433 kts 44°
2026-04-21 21:33 -5.74709 -33.67055 30938 ft 432 kts 44°
2026-04-21 21:34 -5.70464 -33.62770 30942 ft 432 kts 44°
2026-04-21 21:34 -5.66218 -33.58486 30939 ft 432 kts 44°
2026-04-21 21:35 -5.61992 -33.54224 30940 ft 432 kts 44°
2026-04-21 21:35 -5.57750 -33.49946 30938 ft 432 kts 44°
2026-04-21 21:36 -5.53535 -33.45695 30938 ft 432 kts 44°
2026-04-21 21:36 -5.49283 -33.41409 30939 ft 432 kts 45°
2026-04-21 21:37 -5.45106 -33.37198 30934 ft 422 kts 45°
2026-04-21 21:37 -5.40813 -33.33273 30910 ft 414 kts 33°
2026-04-21 21:37 -5.38309 -33.31878 30553 ft 411 kts 23°
2026-04-21 21:38 -5.35620 -33.30932 30196 ft 407 kts 13°
2026-04-21 21:38 -5.32892 -33.30344 29795 ft 404 kts 11°
2026-04-21 21:38 -5.30146 -33.29801 29337 ft 402 kts 11°
2026-04-21 21:38 -5.27403 -33.29269 28902 ft 399 kts 11°
2026-04-21 21:39 -5.24684 -33.28736 28479 ft 396 kts 11°
2026-04-21 21:39 -5.21989 -33.28200 28059 ft 393 kts 11°
2026-04-21 21:39 -5.19308 -33.27658 27656 ft 390 kts 12°
2026-04-21 21:39 -5.16659 -33.27117 27250 ft 388 kts 12°
2026-04-21 21:40 -5.14022 -33.26578 26849 ft 385 kts 12°
2026-04-21 21:40 -5.11399 -33.26038 26445 ft 384 kts 12°
2026-04-21 21:40 -5.08787 -33.25498 26048 ft 382 kts 12°
2026-04-21 21:40 -5.06227 -33.24969 25642 ft 380 kts 12°
2026-04-21 21:41 -5.03605 -33.24427 25236 ft 379 kts 13°
2026-04-21 21:41 -5.01054 -33.23901 24832 ft 378 kts 13°
2026-04-21 21:41 -4.98484 -33.23371 24432 ft 377 kts 13°
2026-04-21 21:41 -4.95914 -33.22841 24031 ft 376 kts 13°
2026-04-21 21:42 -4.93350 -33.22312 23632 ft 376 kts 13°
2026-04-21 21:42 -4.90792 -33.21785 23178 ft 375 kts 13°
2026-04-21 21:42 -4.88245 -33.21260 22755 ft 373 kts 13°
2026-04-21 21:42 -4.85706 -33.20737 22333 ft 370 kts 13°
2026-04-21 21:43 -4.83191 -33.20219 21953 ft 368 kts 13°
2026-04-21 21:43 -4.80685 -33.19703 21563 ft 365 kts 13°
2026-04-21 21:43 -4.78177 -33.19185 20852 ft 373 kts 13°
2026-04-21 21:43 -4.75639 -33.18662 20381 ft 372 kts 13°
2026-04-21 21:44 -4.73103 -33.18140 19961 ft 371 kts 13°
2026-04-21 21:44 -4.70582 -33.17621 19560 ft 369 kts 13°
2026-04-21 21:44 -4.68077 -33.17105 19162 ft 367 kts 13°
2026-04-21 21:44 -4.65617 -33.16598 18773 ft 365 kts 13°
2026-04-21 21:45 -4.63131 -33.16086 18375 ft 363 kts 13°
2026-04-21 21:45 -4.60659 -33.15577 17953 ft 362 kts 13°
2026-04-21 21:45 -4.58203 -33.15072 17549 ft 359 kts 13°
2026-04-21 21:45 -4.55766 -33.14570 17151 ft 356 kts 13°
2026-04-21 21:46 -4.53342 -33.14071 16764 ft 354 kts 13°
2026-04-21 21:46 -4.50944 -33.13577 16383 ft 351 kts 13°
2026-04-21 21:46 -4.48559 -33.13086 16003 ft 349 kts 13°
2026-04-21 21:46 -4.46188 -33.12598 15631 ft 346 kts 13°
2026-04-21 21:47 -4.43831 -33.12112 15260 ft 345 kts 13°
2026-04-21 21:47 -4.41488 -33.11630 14878 ft 343 kts 13°
2026-04-21 21:47 -4.39156 -33.11150 14513 ft 342 kts 13°
2026-04-21 21:47 -4.36840 -33.10625 14144 ft 340 kts 19°
2026-04-21 21:48 -4.34711 -33.09641 13733 ft 336 kts 34°
2026-04-21 21:48 -4.32776 -33.08330 13312 ft 335 kts 37°
2026-04-21 21:48 -4.30881 -33.06982 12938 ft 332 kts 37°
2026-04-21 21:48 -4.29032 -33.05654 12576 ft 330 kts 37°
2026-04-21 21:49 -4.27168 -33.04321 12220 ft 328 kts 37°
2026-04-21 21:49 -4.25314 -33.03002 11861 ft 326 kts 37°
2026-04-21 21:49 -4.23464 -33.01693 11509 ft 324 kts 37°
2026-04-21 21:49 -4.21624 -33.00396 11162 ft 322 kts 37°
2026-04-21 21:50 -4.19794 -32.99109 10818 ft 321 kts 36°
2026-04-21 21:50 -4.17967 -32.97827 10455 ft 320 kts 36°
2026-04-21 21:50 -4.16159 -32.96559 10254 ft 313 kts 36°
2026-04-21 21:50 -4.14389 -32.95318 10091 ft 306 kts 36°
2026-04-21 21:51 -4.12665 -32.94110 9939 ft 299 kts 36°
2026-04-21 21:51 -4.10968 -32.92921 9617 ft 297 kts 36°
2026-04-21 21:51 -4.09295 -32.91748 9319 ft 296 kts 36°
2026-04-21 21:51 -4.07615 -32.90571 9021 ft 294 kts 36°
2026-04-21 21:52 -4.05946 -32.89401 8716 ft 292 kts 36°
2026-04-21 21:52 -4.04280 -32.88234 8413 ft 291 kts 36°
2026-04-21 21:52 -4.02624 -32.87073 8115 ft 290 kts 36°
2026-04-21 21:52 -4.00969 -32.85914 7814 ft 289 kts 36°
2026-04-21 21:53 -3.99324 -32.84762 7522 ft 288 kts 36°
2026-04-21 21:53 -3.97684 -32.83613 7208 ft 287 kts 36°
2026-04-21 21:53 -3.96068 -32.82480 6907 ft 286 kts 36°
2026-04-21 21:53 -3.94437 -32.81338 6618 ft 285 kts 36°
2026-04-21 21:54 -3.92964 -32.80306 6356 ft 285 kts 37°
2026-04-21 21:54 -3.91351 -32.79177 6169 ft 279 kts 36°
2026-04-21 21:54 -3.89779 -32.78076 6038 ft 271 kts 37°
2026-04-21 21:54 -3.88290 -32.77036 5952 ft 251 kts 37°
2026-04-21 21:55 -3.86912 -32.76073 5804 ft 234 kts 37°
2026-04-21 21:55 -3.85617 -32.75167 5703 ft 220 kts 37°
2026-04-21 21:55 -3.84401 -32.74318 5622 ft 206 kts 37°
2026-04-21 21:55 -3.83433 -32.73349 5452 ft 192 kts 67°
2026-04-21 21:56 -3.83165 -32.72086 5224 ft 181 kts 93°
2026-04-21 21:56 -3.83229 -32.70866 5035 ft 177 kts 97°
2026-04-21 21:56 -3.83335 -32.69591 4875 ft 184 kts 97°
2026-04-21 21:56 -3.83439 -32.68322 4642 ft 183 kts 97°
2026-04-21 21:57 -3.83538 -32.67076 4424 ft 175 kts 96°
2026-04-21 21:57 -3.83631 -32.65884 4218 ft 168 kts 97°
2026-04-21 21:57 -3.83718 -32.64755 4066 ft 160 kts 97°
2026-04-21 21:57 -3.83803 -32.63664 3880 ft 155 kts 97°
2026-04-21 21:58 -3.83887 -32.62589 3710 ft 154 kts 97°
2026-04-21 21:58 -3.83970 -32.61530 3571 ft 152 kts 96°
2026-04-21 21:58 -3.84051 -32.60484 3398 ft 149 kts 96°
2026-04-21 21:58 -3.84132 -32.59447 3225 ft 150 kts 97°
2026-04-21 21:59 -3.84229 -32.58412 3075 ft 149 kts 97°
2026-04-21 21:59 -3.84312 -32.57378 2898 ft 148 kts 96°
2026-04-21 21:59 -3.84390 -32.56348 2773 ft 148 kts 96°
2026-04-21 21:59 -3.84467 -32.55324 2599 ft 150 kts 95°
2026-04-21 22:00 -3.84543 -32.54289 2412 ft 149 kts 95°
2026-04-21 22:00 -3.84623 -32.53257 2234 ft 148 kts 95°
2026-04-21 22:00 -3.84689 -32.52230 2040 ft 148 kts 95°
2026-04-21 22:00 -3.84766 -32.51197 1868 ft 148 kts 95°
2026-04-21 22:01 -3.84841 -32.50173 1679 ft 148 kts 95°
2026-04-21 22:01 -3.84929 -32.49146 1496 ft 148 kts 95°
2026-04-21 22:01 -3.85001 -32.48111 1325 ft 149 kts 95°
2026-04-21 22:01 -3.85086 -32.47075 1118 ft 151 kts 95°
2026-04-21 22:02 -3.85160 -32.46023 902 ft 150 kts 94°
2026-04-21 22:02 -3.85236 -32.44998 666 ft 145 kts 95°
2026-04-21 22:02 -3.85311 -32.43983 431 ft 145 kts 94°
2026-04-21 22:02 -3.85389 -32.43009 218 ft 134 kts 96°
2026-04-21 22:03 -3.85450 -32.42236 177 ft 66 kts 94°
2026-04-21 22:03 -3.85467 -32.42021 179 ft 21 kts 94°
2026-04-21 22:03 -3.85477 -32.41877 179 ft 20 kts 94°
2026-04-21 22:03 -3.85488 -32.41737 179 ft 20 kts 94°
2026-04-21 22:04 -3.85497 -32.41611 180 ft 15 kts 93°
2026-04-21 22:04 -3.85491 -32.41554 180 ft 6 kts 72°
2026-04-21 22:04 -3.85473 -32.41514 178 ft 6 kts 95°
2026-04-21 22:04 -3.85503 -32.41512 179 ft 6 kts 240°
2026-04-21 22:05 -3.85503 -32.41552 181 ft 6 kts 273°
2026-04-21 22:05 -3.85496 -32.41639 180 ft 21 kts 274°
2026-04-21 22:05 -3.85483 -32.41812 179 ft 26 kts 274°
2026-04-21 22:05 -3.85470 -32.41987 179 ft 24 kts 274°
2026-04-21 22:06 -3.85458 -32.42150 178 ft 23 kts 274°
2026-04-21 22:06 -3.85446 -32.42307 176 ft 22 kts 275°
2026-04-21 22:06 -3.85435 -32.42457 176 ft 22 kts 274°